Location: Newark
(39.0622°N, 106.5590°E)
Time: 23:37:58
(UTC+00:00)

Explorer 7 - All Passes

Search period start: 18 January 2020 00:00
Search period end: 28 January 2020 00:00
Orbit: 485 x 679 km, 50.3° (Epoch: 18 January)

Date Brightness Start Highest point End Pass type
(mag) Time Alt. Az. Time Alt. Az. Time Alt. Az.
18 Jan - 01:38:03 10° W 01:41:29 24° SW 01:45:04 10° S daylight
18 Jan - 17:17:52 10° SW 17:21:30 51° SE 17:25:12 10° ENE night (unlit)
18 Jan - 18:58:50 10° W 19:02:09 28° NNW 19:05:32 10° NE night (unlit)
18 Jan - 20:41:11 10° NW 20:43:38 16° N 20:46:08 10° NE visible
18 Jan - 22:21:55 10° NW 22:25:12 24° NNE 22:28:38 10° ENE visible
19 Jan - 00:01:59 10° NW 00:06:07 89° SSW 00:10:30 10° SE daylight
19 Jan - 01:43:57 10° W 01:46:13 14° SW 01:48:33 10° SSW daylight
19 Jan - 15:45:20 10° SE 15:46:28 11° SE 15:47:35 10° ESE night (unlit)
19 Jan - 17:22:39 10° SW 17:26:24 89° N 17:30:12 10° NE night (unlit)
19 Jan - 19:04:18 10° WNW 19:07:17 22° NNW 19:10:22 10° NE night (unlit)
19 Jan - 20:46:25 10° NW 20:48:53 16° N 20:51:25 10° NE visible
19 Jan - 22:26:45 10° NW 22:30:20 31° NNE 22:34:06 10° E visible
20 Jan - 00:06:58 10° WNW 00:11:00 54° SW 00:15:16 10° SE daylight
20 Jan - 15:48:23 10° S 15:51:10 20° SE 15:53:57 10° E night (unlit)
20 Jan - 17:27:41 10° WSW 17:31:21 54° NNW 17:35:05 10° NE night (unlit)
20 Jan - 19:09:49 10° WNW 19:12:30 18° NNW 19:15:14 10° NNE night (unlit)
20 Jan - 20:51:29 10° NNW 20:54:09 17° N 20:56:52 10° NE visible
20 Jan - 22:31:34 10° NW 22:35:23 43° NNE 22:39:26 10° ESE visible
21 Jan - 00:12:08 10° WNW 00:15:51 32° SW 00:19:44 10° SSE daylight
21 Jan - 15:52:30 10° SSW 15:55:56 34° SE 15:59:23 10° ENE night (unlit)
21 Jan - 17:32:55 10° W 17:36:23 35° NNW 17:39:54 10° NE night (unlit)
21 Jan - 19:15:19 10° NW 19:17:44 16° N 19:20:12 10° NE night (unlit)
21 Jan - 20:56:25 10° NNW 20:59:21 20° NNE 21:02:23 10° ENE visible
21 Jan - 22:36:25 10° NW 22:40:23 66° NE 22:44:37 10° ESE visible
22 Jan - 00:17:38 10° W 00:20:37 19° SW 00:23:44 10° S daylight
22 Jan - 15:57:04 10° SW 16:00:47 62° SE 16:04:30 10° ENE night (unlit)
22 Jan - 17:38:19 10° W 17:41:29 25° NNW 17:44:42 10° NE night (unlit)
22 Jan - 19:20:41 10° NW 19:22:59 15° N 19:25:21 10° NE night (unlit)
22 Jan - 21:01:15 10° NW 21:04:31 25° NNE 21:07:54 10° ENE visible
22 Jan - 22:41:20 10° WNW 22:45:19 77° SW 22:49:34 10° SE visible
23 Jan - 00:24:09 10° WSW 00:25:21 11° SW 00:26:34 10° SW daylight
23 Jan - 14:23:41 10° SSE 14:25:40 14° SE 14:27:36 10° E night (unlit)
23 Jan - 16:01:55 10° WSW 16:05:41 76° NW 16:09:27 10° NE night (unlit)
23 Jan - 17:43:48 10° WNW 17:46:39 20° NNW 17:49:32 10° NNE night (unlit)
23 Jan - 19:25:52 10° NNW 19:28:15 16° N 19:30:41 10° NE night (unlit)
23 Jan - 21:06:04 10° NW 21:09:38 33° NNE 21:13:20 10° E visible
23 Jan - 22:46:23 10° WNW 22:50:12 45° SW 22:54:14 10° SSE visible
24 Jan - 14:27:16 10° S 14:30:23 24° SE 14:33:28 10° E night (unlit)
24 Jan - 16:07:02 10° WSW 16:10:41 46° NNW 16:14:18 10° NE night (unlit)
24 Jan - 17:49:20 10° NW 17:51:52 17° N 17:54:25 10° NNE night (unlit)
24 Jan - 19:30:52 10° NNW 19:33:29 17° NNE 19:36:10 10° NE night (unlit)
24 Jan - 21:10:53 10° NW 21:14:40 48° NNE 21:18:38 10° ESE visible
24 Jan - 22:51:38 10° WNW 22:55:01 26° SW 22:58:34 10° SSE visible
25 Jan - 14:31:34 10° SSW 14:35:11 42° SE 14:38:45 10° ENE night (unlit)
25 Jan - 16:12:19 10° W 16:15:43 31° NNW 16:19:07 10° NE night (unlit)
25 Jan - 17:54:48 10° NW 17:57:06 15° N 17:59:26 10° NNE night (unlit)
25 Jan - 19:35:45 10° NNW 19:38:41 21° NNE 19:41:42 10° ENE night (unlit)
25 Jan - 21:15:45 10° NW 21:19:38 77° NE 21:23:44 10° ESE visible
25 Jan - 22:57:20 10° W 22:59:47 16° SW 23:02:18 10° SSW visible
26 Jan - 14:36:14 10° SW 14:40:03 75° SE 14:43:48 10° ENE night (unlit)
26 Jan - 16:17:45 10° WNW 16:20:50 23° NNW 16:23:55 10° NE night (unlit)
26 Jan - 18:00:07 10° NW 18:02:21 15° N 18:04:37 10° NE night (unlit)
26 Jan - 19:40:34 10° NW 19:43:50 26° NNE 19:47:12 10° E night (unlit)
26 Jan - 21:20:42 10° WNW 21:24:33 64° SW 21:28:36 10° SE visible
27 Jan - 13:02:18 10° S 13:04:51 17° SE 13:07:21 10° E night (unlit)
27 Jan - 14:41:11 10° WSW 14:44:59 65° NNW 14:48:43 10° NE night (unlit)
27 Jan - 16:23:17 10° WNW 16:26:00 19° NNW 16:28:44 10° NNE night (unlit)
27 Jan - 18:05:14 10° NNW 18:07:36 16° N 18:10:00 10° NE night (unlit)
27 Jan - 19:45:22 10° NW 19:48:55 36° NNE 19:52:36 10° E night (unlit)
27 Jan - 21:25:48 10° WNW 21:29:24 37° SW 21:33:11 10° SSE visible
